TimeCST,TemperatureF,Dew PointF,Humidity,Sea Level PressureIn,VisibilityMPH,Wind Direction,Wind SpeedMPH,Gust SpeedMPH,PrecipitationIn,Events,Conditions,WindDirDegrees,DateUTC
12:15 AM,51.8,32.0,47,29.90,10.0,SSW,11.5,-,N/A,,Clear,210,2014-01-20 06:15:00
12:35 AM,51.8,30.2,44,29.90,10.0,SW,10.4,-,N/A,,Clear,220,2014-01-20 06:35:00
12:55 AM,51.8,30.2,44,29.89,10.0,SW,9.2,-,N/A,,Clear,220,2014-01-20 06:55:00
1:15 AM,50.0,30.2,47,29.89,10.0,SW,8.1,-,N/A,,Clear,220,2014-01-20 07:15:00
1:35 AM,50.0,30.2,47,29.88,10.0,SW,8.1,-,N/A,,Clear,220,2014-01-20 07:35:00
1:55 AM,48.2,30.2,50,29.88,10.0,SW,6.9,-,N/A,,Clear,220,2014-01-20 07:55:00
2:15 AM,46.4,32.0,57,29.86,10.0,SSW,8.1,-,N/A,,Clear,210,2014-01-20 08:15:00
2:35 AM,48.2,32.0,54,29.86,10.0,SSW,8.1,-,N/A,,Clear,210,2014-01-20 08:35:00
2:55 AM,46.4,30.2,53,29.86,10.0,SSW,4.6,-,N/A,,Clear,210,2014-01-20 08:55:00
3:15 AM,46.4,30.2,53,29.86,10.0,SSW,6.9,-,N/A,,Clear,210,2014-01-20 09:15:00
3:35 AM,44.6,30.2,57,29.86,10.0,SW,8.1,-,N/A,,Clear,220,2014-01-20 09:35:00
3:55 AM,46.4,30.2,53,29.85,10.0,SW,8.1,-,N/A,,Clear,220,2014-01-20 09:55:00
4:15 AM,46.4,30.2,53,29.85,10.0,SW,6.9,-,N/A,,Clear,220,2014-01-20 10:15:00
4:35 AM,46.4,32.0,57,29.85,10.0,SW,9.2,-,N/A,,Clear,220,2014-01-20 10:35:00
4:55 AM,46.4,30.2,53,29.86,10.0,Calm,Calm,-,N/A,,Clear,0,2014-01-20 10:55:00
5:15 AM,46.4,30.2,53,29.86,10.0,WSW,4.6,-,N/A,,Clear,250,2014-01-20 11:15:00
5:35 AM,44.6,30.2,57,29.87,10.0,NW,4.6,-,N/A,,Clear,320,2014-01-20 11:35:00
5:55 AM,42.8,30.2,61,29.87,10.0,North,3.5,-,N/A,,Clear,350,2014-01-20 11:55:00
6:15 AM,44.6,30.2,57,29.87,10.0,West,3.5,-,N/A,,Clear,260,2014-01-20 12:15:00
6:35 AM,44.6,30.2,57,29.88,10.0,Calm,Calm,-,N/A,,Clear,0,2014-01-20 12:35:00
6:55 AM,41.0,30.2,65,29.87,10.0,Calm,Calm,-,N/A,,Clear,0,2014-01-20 12:55:00
7:15 AM,39.2,30.2,70,29.88,10.0,Calm,Calm,-,N/A,,Clear,0,2014-01-20 13:15:00
7:35 AM,39.2,30.2,70,29.87,10.0,SE,3.5,-,N/A,,Clear,140,2014-01-20 13:35:00
7:55 AM,37.4,30.2,75,29.88,10.0,ESE,3.5,-,N/A,,Clear,120,2014-01-20 13:55:00
8:15 AM,41.0,32.0,70,29.87,10.0,SSE,5.8,-,N/A,,Clear,160,2014-01-20 14:15:00
8:35 AM,42.8,32.0,66,29.87,10.0,South,3.5,-,N/A,,Clear,170,2014-01-20 14:35:00
8:55 AM,46.4,32.0,57,29.89,10.0,Calm,Calm,-,N/A,,Clear,0,2014-01-20 14:55:00
9:15 AM,46.4,32.0,57,29.89,10.0,WSW,3.5,-,N/A,,Clear,250,2014-01-20 15:15:00
9:35 AM,50.0,32.0,50,29.90,10.0,West,3.5,-,N/A,,Clear,270,2014-01-20 15:35:00
9:55 AM,51.8,32.0,47,29.90,10.0,West,5.8,-,N/A,,Clear,270,2014-01-20 15:55:00
10:15 AM,53.6,32.0,44,29.92,10.0,NW,5.8,-,N/A,,Clear,310,2014-01-20 16:15:00
10:35 AM,55.4,32.0,41,29.92,10.0,NW,3.5,-,N/A,,Clear,320,2014-01-20 16:35:00
10:55 AM,57.2,32.0,38,29.93,10.0,North,4.6,-,N/A,,Clear,10,2014-01-20 16:55:00
11:15 AM,59.0,32.0,36,29.94,10.0,North,6.9,-,N/A,,Clear,360,2014-01-20 17:15:00
11:35 AM,59.0,32.0,36,29.94,10.0,NNW,6.9,-,N/A,,Clear,340,2014-01-20 17:35:00
11:55 AM,60.8,32.0,34,29.93,10.0,North,8.1,-,N/A,,Clear,360,2014-01-20 17:55:00
12:15 PM,62.6,32.0,32,29.92,10.0,North,5.8,-,N/A,,Clear,360,2014-01-20 18:15:00
12:35 PM,64.4,32.0,30,29.91,10.0,North,9.2,-,N/A,,Clear,360,2014-01-20 18:35:00
12:55 PM,64.4,33.8,32,29.91,10.0,North,11.5,16.1,N/A,,Clear,350,2014-01-20 18:55:00
1:15 PM,64.4,33.8,32,29.91,10.0,North,12.7,17.3,N/A,,Clear,10,2014-01-20 19:15:00
1:35 PM,68.0,33.8,28,29.92,10.0,North,13.8,17.3,N/A,,Clear,350,2014-01-20 19:35:00
1:55 PM,68.0,35.6,30,29.93,10.0,North,18.4,23.0,N/A,,Clear,350,2014-01-20 19:55:00
2:15 PM,66.2,35.6,32,29.94,10.0,North,18.4,25.3,N/A,,Clear,360,2014-01-20 20:15:00
2:35 PM,64.4,35.6,34,29.95,10.0,North,16.1,25.3,N/A,,Clear,10,2014-01-20 20:35:00
2:55 PM,64.4,33.8,32,29.96,10.0,North,18.4,28.8,N/A,,Clear,10,2014-01-20 20:55:00
3:15 PM,64.4,33.8,32,29.97,10.0,NNE,19.6,24.2,N/A,,Clear,20,2014-01-20 21:15:00
3:35 PM,64.4,32.0,30,29.99,10.0,NNE,17.3,26.5,N/A,,Clear,20,2014-01-20 21:35:00
3:55 PM,64.4,32.0,30,30.01,10.0,NNE,19.6,28.8,N/A,,Clear,20,2014-01-20 21:55:00
4:15 PM,64.4,32.0,30,30.03,7.0,NNE,15.0,25.3,N/A,,Clear,30,2014-01-20 22:15:00
4:35 PM,62.6,28.4,27,30.05,10.0,NE,13.8,26.5,N/A,,Clear,40,2014-01-20 22:35:00
4:55 PM,62.6,28.4,27,30.06,10.0,NNE,13.8,23.0,N/A,,Clear,20,2014-01-20 22:55:00
5:15 PM,60.8,30.2,31,30.07,10.0,NNE,13.8,23.0,N/A,,Clear,20,2014-01-20 23:15:00
5:35 PM,59.0,30.2,34,30.10,10.0,North,16.1,27.6,N/A,,Clear,10,2014-01-20 23:35:00
5:55 PM,57.2,30.2,36,30.12,10.0,North,16.1,29.9,N/A,,Clear,10,2014-01-20 23:55:00
6:15 PM,55.4,30.2,38,30.14,10.0,North,10.4,-,N/A,,Clear,10,2014-01-21 00:15:00
6:35 PM,53.6,30.2,41,30.15,10.0,North,10.4,-,N/A,,Clear,360,2014-01-21 00:35:00
6:55 PM,53.6,30.2,41,30.16,10.0,North,11.5,-,N/A,,Clear,360,2014-01-21 00:55:00
7:15 PM,51.8,30.2,44,30.18,10.0,North,12.7,-,N/A,,Clear,10,2014-01-21 01:15:00
7:35 PM,50.0,30.2,47,30.19,10.0,North,9.2,-,N/A,,Clear,360,2014-01-21 01:35:00
7:55 PM,48.2,30.2,50,30.21,10.0,North,8.1,-,N/A,,Clear,360,2014-01-21 01:55:00
8:15 PM,46.4,30.2,53,30.21,10.0,North,8.1,-,N/A,,Clear,360,2014-01-21 02:15:00
8:35 PM,46.4,30.2,53,30.22,10.0,North,9.2,-,N/A,,Clear,360,2014-01-21 02:35:00
8:55 PM,44.6,30.2,57,30.22,10.0,North,6.9,-,N/A,,Clear,350,2014-01-21 02:55:00
9:15 PM,44.6,30.2,57,30.23,10.0,NNW,8.1,-,N/A,,Clear,340,2014-01-21 03:15:00
9:35 PM,44.6,30.2,57,30.24,10.0,NNW,6.9,-,N/A,,Clear,340,2014-01-21 03:35:00
9:55 PM,44.6,28.4,53,30.24,10.0,NNW,8.1,-,N/A,,Clear,340,2014-01-21 03:55:00
10:15 PM,42.8,28.4,57,30.26,10.0,North,6.9,-,N/A,,Clear,350,2014-01-21 04:15:00
10:35 PM,42.8,28.4,57,30.27,10.0,North,8.1,-,N/A,,Clear,350,2014-01-21 04:35:00
10:55 PM,41.0,28.4,61,30.29,10.0,NNW,9.2,-,N/A,,Clear,340,2014-01-21 04:55:00
11:15 PM,41.0,28.4,61,30.29,10.0,North,8.1,-,N/A,,Clear,360,2014-01-21 05:15:00
11:35 PM,41.0,28.4,61,30.30,10.0,North,9.2,17.3,N/A,,Clear,10,2014-01-21 05:35:00
11:55 PM,41.0,28.4,61,30.31,10.0,North,12.7,17.3,N/A,,Clear,10,2014-01-21 05:55:00